Back to catalog

AUTCUBE 2

AliveAmateur RadioPO
NORAD 43681·PAYLOAD·🇯🇵 Japan

Launched Oct 29, 2018 from Tanegashima Space Center

Loading…

Next Passes (next 24 hours)

TLE

FreshSource: Space-Track

Epoch: Sep 14, 2026, 12:52 UTC

1 43681U 18084K   26257.53671197  .00003144  00000-0  19451-3 0  9999
2 43681  98.0613 108.4501 0010271  98.6349 261.6044 15.10590739430415

Track AUTCUBE 2 in real time with AllMySat

Download on the App Store